Location: Newark
(41.0400°S, 62.7845°W)
Time: 08:17:00
(UTC+00:00)

AO-73 - Visible Passes

Search period start: 29 January 2022 00:00
Search period end: 08 February 2022 00:00
Orbit: 580 x 661 km, 97.6° (Epoch: 28 January)

Date Brightness Start Highest point End Pass type
(mag) Time Alt. Az. Time Alt. Az. Time Alt. Az.
29 Jan ? 07:14:25 10° NE 07:18:29 41° ESE 07:22:41 10° S visible
30 Jan ? 07:31:34 10° NNE 07:35:51 65° ESE 07:40:18 10° S visible
31 Jan ? 06:17:02 10° ESE 06:17:52 10° ESE 06:18:43 10° SE visible
31 Jan ? 07:48:56 10° N 07:53:17 81° WNW 07:57:48 10° SSW visible
01 Feb ? 06:32:26 10° E 06:35:04 16° ESE 06:37:46 10° SSE visible
01 Feb ? 08:06:30 10° N 08:10:45 51° W 08:15:10 10° SSW visible
02 Feb ? 06:48:51 10° ENE 06:52:20 23° ESE 06:55:53 10° SSE visible
02 Feb ? 08:24:19 10° NNW 08:28:17 33° W 08:32:21 10° SSW visible
03 Feb ? 07:05:39 10° NE 07:09:38 34° ESE 07:13:44 10° S visible
03 Feb ? 08:42:27 10° NW 08:45:51 22° W 08:49:21 10° SW visible
04 Feb ? 07:22:42 10° NNE 07:26:58 53° ESE 07:31:24 10° S visible
05 Feb ? 07:39:57 10° NNE 07:44:22 82° ESE 07:48:57 10° S visible
06 Feb ? 06:24:06 10° E 06:26:16 13° ESE 06:28:28 10° SSE visible
06 Feb ? 07:57:26 10° N 08:01:49 64° W 08:06:21 10° SSW visible
07 Feb ? 06:40:16 10° ENE 06:43:29 20° ESE 06:46:47 10° SSE visible
07 Feb ? 08:15:07 10° NNW 08:19:18 41° W 08:23:38 10° SSW visible
